Location: Newark
(42.9260°N, 89.3850°W)
Time: 19:59:53
(UTC+00:00)

STARLINK 1045 - Pass Details

Date: 12 December 2019
Orbit: 548 x 551 km, 53.0° (Epoch: 22 January)

Event Time Altitude Azimuth Distance (km) Brightness Sun altitude
Exits shadow 12:37:16 - 271° (W) 2,178 6.1 -7.6°
Reaches altitude 10° 12:38:27 10° 258° (WSW) 1,952 5.9 -7.4°
Maximum altitude 12:40:11 12° 235° (SW) 1,815 6.0 -7.1°
Drops below altitude 10° 12:41:56 10° 212° (SSW) 1,949 6.4 -6.8°
Sets 12:45:33 0° 182° (S) 2,846 7.6 -6.2°
